STARLINK-33548 (62280 NORAD) Tracking and Keplerian Element Data

This shows tracking and keplerian element data for the satellite.

Feedback or suggestion? Click here.




ElementValue
Catalog62280
NameSTARLINK-33548
Epoch Orbit1004
Epoch Day34.1834614
Epoch Year2025
RAAN316.81
Inclination43
Eccentricity0.0001326
Argument of Perigee265.9295
Mean Anonmoly94.141
Mean Motion15.40685611
Decay Rate2.321E-05
L11 62280U 24237P 25034.18346140 .00002321 00000+0 62834-4 0 9991
L22 62280 43.0000 316.8100 0001326 265.9295 94.1410 15.40685611 10047



Live tracking and technical data element details for STARLINK-33548 (NORAD 62280). STARLINK-33548 can be tracked NOW for your location showing map with azimuth and elevation plus other details from your city location.







IsCatalogInMostPopularTable: catalog: 62280, numindb: 56
Update: records affected: 1



GetName: 62280 STARLINK-33548

Hit Count: updated at: Sat, 24 May 2025 15:38:06 GMT